User: anonymous   Login
Location: Unspecified
(0.0000°N, 0.0000°E)
Time: 14:00:04
(UTC+00:00)
Language:

OPS 7613 P/L 1 - Orbit

View from above orbital plane
View from above orbital plane
View from above satellite
View from above satellite

Ground track
Ground track

The orbit data is extracted from the following two-line orbital elements,

1 04256U 69082B   18051.21861147  .00000015  00000-0  47810-4 0  9997
2 04256  70.0118   6.6405 0016352  80.9714 279.3243 13.98285633465567
Epoch (UTC): 20 February 2018 05:14:48
Eccentricity: 0.0016352
inclination: 70.0118°
perigee height: 888 km
apogee height: 911 km
right ascension of ascending node: 6.6405°
argument of perigee: 80.9714°
revolutions per day: 13.98285633
mean anomaly at epoch: 279.3243°
orbit number at epoch: 46556

The dashed part of the orbit path shows where the satellite is in the earth's shadow,  

DLR